Location: Cohoes
(42.7742°N, 73.7001°W)
Time: 20:01:19
(UTC+00:00)

Daily predictions for brighter satellites

Satellite Brightness Start Highest point End
(mag) Time Altitude Azimuth Time Altitude Azimuth Time Altitude Azimuth
BREEZE-M DEB (TANK) 4.1 21:45:36 10° W 21:49:13 65° NNW 22:01:00 10° ENE
CZ-4C R/B 3.1 21:52:45 10° NNE 21:56:23 89° WNW 22:00:01 10° SSW
Cosmos 1814 Rocket 4.2 21:54:00 10° SSW 21:59:21 79° WNW 22:04:42 10° NNE
Cosmos 405 3.0 21:56:02 10° S 21:59:31 84° W 22:03:01 10° N
Cosmos 389 Rocket 4.1 21:57:34 10° SE 21:59:47 16° E 22:01:59 10° NE
Nadezhda 1 Rocket 4.2 21:53:41 10° SSE 21:59:49 57° E 22:06:03 10° NNE
SMAP 3.2 21:55:51 10° SSE 22:00:21 52° ENE 22:04:54 10° N
Cosmos 1606 4.0 22:00:14 10° SE 22:03:16 22° E 22:06:19 10° NE
Cosmos 1943 Rocket 3.9 22:08:30 10° NNE 22:10:44 12° NE 22:12:39 11° ENE
Cosmos 2292 4.5 22:08:09 10° S 22:11:04 48° E 22:14:22 10° NNE
SL-16 R/B 3.5 22:08:10 10° SE 22:12:03 19° E 22:15:42 11° ENE
PAYLOAD B 4.5 22:07:19 10° SSE 22:12:54 79° WSW 22:18:31 10° NNW
Cosmos 2154 Rocket 4.0 22:07:01 10° N 22:13:20 67° E 22:19:38 10° SSE
H-2A R/B 2.2 22:13:29 10° N 22:17:39 76° WNW 22:21:52 10° SSW
Cosmos 1610 Rocket 4.5 22:11:48 10° N 22:18:10 73° E 22:24:24 10° SSE
Cosmos 1862 3.2 22:14:44 10° N 22:18:47 80° E 22:22:47 10° S
Landsat 5 4.3 22:14:44 10° N 22:19:01 57° WNW 22:23:23 10° SSW
Cosmos 2341 Rocket 4.4 22:15:04 10° N 22:20:59 41° ENE 22:26:53 10° SE
ATLAS 5 CENTAUR R/B 4.1 22:15:52 10° NW 22:21:21 39° WSW 22:27:34 10° S
Abrixas rocket 1.7 22:19:51 10° WNW 22:22:36 66° NNE 22:24:47 15° ESE
CZ-2C R/B 4.2 22:19:38 10° ESE 22:23:19 20° ENE 22:26:53 10° NNE
Cosmos 1867 4.3 22:20:54 10° S 22:25:42 33° ESE 22:29:38 14° NE
CZ-4 R/B 2.9 22:25:58 16° ENE 22:25:59 16° ENE 22:28:26 10° NNE
Cosmos 2333 Rocket 3.6 22:20:52 10° WSW 22:26:06 37° WNW 22:31:20 10° N
USA 281 3.8 22:21:11 10° ESE 22:26:58 35° NE 22:32:46 10° N
Cosmos 1633 Rocket 4.1 22:24:46 10° NNE 22:28:19 23° ENE 22:31:50 10° SE
NOSS 0 Rocket 4.0 22:22:38 10° SSW 22:28:53 86° WNW 22:35:10 10° NNE
Cosmos 1689 Rocket 3.8 22:29:44 16° ESE 22:29:44 16° ESE 22:31:16 10° SE
CZ-2D R/B 4.3 22:28:10 10° ESE 22:31:16 24° ENE 22:34:24 10° NNE
COSMOS 2428 3.9 22:25:55 10° SW 22:31:20 43° WNW 22:36:47 10° NNE
Cosmos 2298 Rocket 4.2 22:27:51 10° NNW 22:33:10 79° WSW 22:38:28 10° SSE
Cosmos 1356 4.0 22:30:04 10° N 22:33:13 33° ENE 22:36:20 10° SE
Cosmos 1818 3.5 22:29:08 10° NNW 22:34:37 74° NE 22:40:03 10° SE
Cosmos 2150 Rocket 4.0 22:29:44 10° NNW 22:34:55 83° WSW 22:40:03 10° SSE
ISS -3.6 22:32:36 10° WSW 22:35:56 67° NNW 22:37:58 22° NE
ERS-2 2.1 22:35:21 10° NNE 22:39:00 62° ESE 22:42:37 10° S
Cosmos 1939 Rocket 3.0 22:36:09 10° SE 22:39:48 43° ENE 22:43:30 10° N
Cosmos 2278 Rocket 2.4 22:35:59 10° NNW 22:41:41 78° WSW 22:47:20 10° SSE
Cosmos 2221 4.4 22:38:01 10° SW 22:41:56 32° WNW 22:45:51 10° N
CZ-4B R/B 1.0 22:39:41 10° NNE 22:42:45 83° ESE 22:45:50 10° S
SL-8 Rocket 4.1 22:42:07 10° N 22:48:09 51° ENE 22:54:13 10° SSE
BREEZE-M DEB (TANK) 4.3 22:47:24 10° S 22:49:05 12° SSE 22:49:52 12° SE
Cosmos 44 4.5 22:44:55 10° NNW 22:49:24 27° NE 22:50:50 24° ENE
GENESIS II 4.1 22:46:19 10° NNW 22:50:16 64° NE 22:53:40 13° SE
TELKOM 3 3.0 22:47:37 10° WSW 22:50:21 73° NNW 22:50:44 55° NE
Meteor 1-25 Rocket 4.5 22:45:13 10° N 22:50:33 44° ENE 22:55:56 10° SE
Cosmos 2181 Rocket 4.2 22:44:24 10° SSE 22:50:37 53° E 22:56:49 10° NNE
Cosmos 1125 Rocket 3.5 22:46:47 10° NNW 22:52:01 84° WSW 22:57:13 10° SSE
IRS-1C Rocket 4.1 22:48:24 10° SSE 22:53:33 58° ENE 22:58:45 10° N
YAOGAN 1 3.3 22:55:22 30° ENE 22:55:22 30° ENE 22:59:06 10° N
USA 215 3.4 22:54:19 17° NE 22:59:33 73° NW 23:06:03 10° WSW
YAOGAN 3 4.5 22:55:51 10° SSE 23:00:12 81° ENE 23:04:35 10° N
Cosmos 2219 Rocket 4.2 22:56:06 10° WSW 23:00:33 23° NW 23:05:01 10° N
Okean-O 2.9 22:58:02 10° SE 23:02:12 42° ENE 23:06:23 10° N
Meteor 2-12 Rocket 4.5 22:57:37 10° N 23:03:48 84° W 23:09:56 10° S
COSMO-SKYMED 1 2.5 23:02:49 10° NNE 23:07:12 85° ESE 23:11:32 10° SSW
Cosmos 2237 Rocket 2.9 23:02:53 10° SW 23:08:22 54° WNW 23:13:54 10° NNE
EO 1 Delta rocket 4.3 23:05:39 10° NNE 23:10:54 65° E 23:17:30 10° S
CZ-4 R/B 4.3 23:09:41 10° SSE 23:13:49 78° ENE 23:17:59 10° N
Okean O Rocket 3.8 23:11:18 10° SSW 23:15:01 28° W 23:18:48 10° NW
SL-24 R/B 3.7 23:13:00 20° NNE 23:15:49 86° E 23:19:35 10° SSW
Cosmos 1933 3.2 23:12:28 10° S 23:16:30 87° W 23:19:06 21° N
USA 81 3.9 23:14:14 10° N 23:19:33 84° E 23:24:50 10° S
Sich 1 4.0 23:15:24 10° NNW 23:19:40 49° W 23:23:52 10° SSW
PSLV R/B 3.7 23:20:05 36° NNE 23:21:42 86° ESE 23:25:44 10° SSW
CSL-04 Rocket 4.1 23:23:41 39° NE 23:23:41 39° NE 23:27:56 10° N
Cosmos 2369 Rocket 3.5 23:19:06 10° N 23:22:06 22° NNE 23:22:06 22° NNE
H-2A R/B 2.2 23:25:29 47° E 23:26:05 49° ENE 23:31:08 10° N
Helios 1A Rocket 2.7 23:25:32 10° SSE 23:29:33 83° ENE 23:33:36 10° NNW
USA 267 3.1 23:27:58 31° ESE 23:31:22 79° NE 23:37:54 10° NW
Cosmos 2218 Rocket 3.9 23:26:11 10° N 23:32:22 89° W 23:38:31 10° S
Cosmos 1666 Rocket 4.2 23:30:32 10° NNW 23:34:50 54° W 23:39:08 10° S
Cosmos 1151 Rocket 3.2 23:31:16 10° SSW 23:35:32 68° W 23:37:28 31° N
Cosmos 773 Rocket 3.8 23:31:14 10° S 23:36:26 72° ESE 23:37:15 60° NE
Cosmos 1782 4.3 23:33:21 10° S 23:35:11 26° S 23:35:11 26° S
Cosmos 1328 Rocket 3.6 23:34:49 10° SSW 23:39:06 72° W 23:40:17 46° N
Meteor 1-14 Rocket 4.2 23:38:26 10° N 23:44:22 68° ENE 23:46:47 37° SSE
Cosmos 2366 rocket 4.1 23:38:18 10° N 23:44:31 75° W 23:50:38 10° S
SL-24 DEB 4.5 23:40:28 10° N 23:45:13 70° W 23:49:55 10° SSW
Cosmos 2297 3.7 23:42:16 10° NNW 23:47:59 84° WSW 23:50:36 34° SSE
BREEZE-M DEB (TANK) 3.7 23:40:08 10° SW 23:48:28 56° SSE 23:48:28 56° SSE
MOS 1 Rocket 3.7 23:51:26 32° N 23:54:04 78° WNW 23:59:29 10° SSW
